Weather in Châlons-en-Champagne

France     48°57′21″N   4°21′57″E
temp.,
°C
wind,
m/s
gust,
m/s
humid.,
%
clouds,
%
prec.,
mm/h
press.,
hPa
HPBL,
m
11 may, tue
tue1123:00+11s41088100 0.0 1010321
02:00+9s3693100 0.0 1010160
05:00+8sse2395100 0.1 101061
08:00+10sw119070 0.4 1010122
11:00+13ese2280100 0.1 1010432
14:00+15ssw337284 1.8 1010810
17:00+14wsw3483100 2.6 1010390
20:00+12w51089100 6.1 1012402
12 may, wed
wed1223:00+10wsw499084 0.1 1013186
02:00+7wsw369454 0.1 1014112
05:00+6wsw35955 0.0 101585
08:00+7wsw24916 0.0 1015171
11:00+12wsw337395 0.0 1014991
14:00+14ssw3358100 0.1 10131637
17:00+14ssw3355100 0.1 10121551
20:00+12ssw237675 0.1 101264
13 may, thu
thu1323:00+8s118198 0.0 101210
02:00+6s22875 0.0 101210
05:00+6s22898 0.0 101114
08:00+9ssw248499 0.0 1010193
11:00+10wsw4686100 0.1 1011600
14:00+10wsw458391 0.3 1010551
17:00+14w255977 0.1 10081578
20:00+13w35785 0.3 1008124
14 may, fri
fri1423:00+8w229019 0.1 100913
02:00+7sw119128 0.1 100911
05:00+6ssw11925 0.0 100911
08:00+8sw12885 0.0 1010115
11:00+13wsw23725 0.3 1010832
14:00+16w345924 1.2 10091597
17:00+16w446682 1.3 10101237
20:00+13w227971 2.6 101036
15 may, sat
sat1523:00+9wsw22875 0.1 101218
02:00+7wsw23910 0.1 101329
05:00+6sw23930 0.0 101446
08:00+8sw359411 0.0 1015208
11:00+13sw567422 0.0 1015918
14:00+15sw4571100 2.7 10141149
17:00
20:00+12sw5986100 0.7 1014480